• In Uzbekistan
  • List of Countries
  • For 7 days
  • Water Temperature
  • Satellite Maps
  • Weather Map
  • Weather Widgets
  • user-avatar
    Login

    Hourly Weather Plawna

    Today, 24 January, Thursday

    Time Temperature Precipitation Wind Pressure Humidity
    00:00 -9°C° 0 mm 3 mps 726 mmHg 91%
    01:00 -9°C° 0 mm 3 mps 726 mmHg 91%
    02:00 -9°C° 0.1 mm 3 mps 726 mmHg 91%
    03:00 -9°C° 0.1 mm 3 mps 726 mmHg 91%
    04:00 -9°C° 0.1 mm 3 mps 726 mmHg 92%
    05:00 -9°C° 0.1 mm 3 mps 726 mmHg 91%
    06:00 -9°C° 0.1 mm 3 mps 726 mmHg 91%
    07:00 -10°C° 0.1 mm 4 mps 726 mmHg 91%
    08:00 -10°C° 0 mm 4 mps 727 mmHg 90%
    09:00 -9°C° 0 mm 4 mps 727 mmHg 89%
    10:00 -9°C° 0 mm 4 mps 727 mmHg 88%
    11:00 -9°C° 0 mm 4 mps 727 mmHg 86%
    12:00 -8°C° 0 mm 5 mps 727 mmHg 85%
    13:00 -8°C° 0 mm 5 mps 726 mmHg 84%
    14:00 -8°C° 0.1 mm 5 mps 727 mmHg 85%
    15:00 -10°C° 0.1 mm 5 mps 727 mmHg 86%
    16:00 -9°C° 0.1 mm 4 mps 727 mmHg 87%
    17:00 -9°C° 0.2 mm 4 mps 727 mmHg 88%
    18:00 -9°C° 0.2 mm 4 mps 727 mmHg 90%
    19:00 -10°C° 0.2 mm 4 mps 727 mmHg 91%
    20:00 -9°C° 0.2 mm 4 mps 727 mmHg 91%
    21:00 -9°C° 0.2 mm 4 mps 727 mmHg 92%
    22:00 -9°C° 0.2 mm 4 mps 728 mmHg 92%
    23:00 -10°C° 0.2 mm 4 mps 727 mmHg 92%

    Tomorrow, 25 January, Friday

    Time Temperature Precipitation Wind Pressure Humidity
    00:00 -9°C° 0.2 mm 3 mps 727 mmHg 92%
    01:00 -9°C° 0.2 mm 3 mps 727 mmHg 93%
    02:00 -9°C° 0.1 mm 3 mps 727 mmHg 93%
    03:00 -9°C° 0.1 mm 3 mps 727 mmHg 93%
    04:00 -9°C° 0.1 mm 3 mps 727 mmHg 94%
    05:00 -8°C° 0.2 mm 2 mps 727 mmHg 94%
    06:00 -8°C° 0.2 mm 2 mps 727 mmHg 94%
    07:00 -8°C° 0.2 mm 2 mps 728 mmHg 94%
    08:00 -7°C° 0.2 mm 2 mps 728 mmHg 94%
    09:00 -7°C° 0.2 mm 2 mps 728 mmHg 93%
    10:00 -7°C° 0.2 mm 2 mps 728 mmHg 93%
    11:00 -6°C° 0.1 mm 2 mps 729 mmHg 92%
    12:00 -6°C° 0.1 mm 2 mps 729 mmHg 91%
    13:00 -6°C° 0.1 mm 2 mps 729 mmHg 90%
    14:00 -7°C° 0 mm 3 mps 729 mmHg 91%
    15:00 -7°C° 0 mm 3 mps 729 mmHg 91%
    16:00 -7°C° 0 mm 3 mps 730 mmHg 91%
    17:00 -7°C° 0 mm 2 mps 730 mmHg 92%
    18:00 -7°C° 0 mm 2 mps 730 mmHg 93%
    19:00 -7°C° 0 mm 2 mps 731 mmHg 93%
    20:00 -7°C° 0 mm 2 mps 731 mmHg 93%
    21:00 -8°C° 0 mm 3 mps 732 mmHg 93%
    22:00 -8°C° 0 mm 3 mps 732 mmHg 93%
    23:00 -8°C° 0 mm 3 mps 732 mmHg 93%

    Day after tomorrow, 26 January, Saturday

    Time Temperature Precipitation Wind Pressure Humidity
    00:00 -8°C° 0 mm 3 mps 732 mmHg 94%
    01:00 -8°C° 0 mm 3 mps 732 mmHg 94%
    02:00 -9°C° 0 mm 3 mps 732 mmHg 94%
    03:00 -8°C° 0 mm 2 mps 732 mmHg 94%
    04:00 -8°C° 0 mm 2 mps 732 mmHg 94%
    05:00 -8°C° 0 mm 2 mps 732 mmHg 94%
    06:00 -8°C° 0 mm 2 mps 732 mmHg 95%
    07:00 -9°C° 0 mm 2 mps 732 mmHg 95%
    08:00 -8°C° 0 mm 2 mps 732 mmHg 92%
    09:00 -7°C° 0 mm 2 mps 732 mmHg 89%
    10:00 -6°C° 0 mm 2 mps 732 mmHg 87%
    11:00 -5°C° 0 mm 2 mps 731 mmHg 82%
    12:00 -2°C° 0 mm 1 mps 730 mmHg 78%
    13:00 -1°C° 0 mm 1 mps 730 mmHg 74%
    14:00 -1°C° 0 mm 1 mps 729 mmHg 76%
    15:00 -1°C° 0 mm 1 mps 729 mmHg 79%
    16:00 -1°C° 0 mm 1 mps 728 mmHg 81%
    17:00 -3°C° 0.4 mm 2 mps 728 mmHg 85%
    18:00 -2°C° 0.4 mm 2 mps 728 mmHg 89%
    19:00 -2°C° 0.4 mm 3 mps 728 mmHg 93%
    20:00 -1°C° 0.6 mm 3 mps 728 mmHg 92%
    21:00 -1°C° 0.6 mm 3 mps 728 mmHg 92%
    22:00 0°C° 0.6 mm 3 mps 728 mmHg 92%
    23:00 0°C° 0.5 mm 3 mps 728 mmHg 92%

    27 January, Sunday

    Time Temperature Precipitation Wind Pressure Humidity
    00:00 0°C° 0.5 mm 3 mps 728 mmHg 92%
    01:00 +1°C° 0.5 mm 2 mps 728 mmHg 93%
    02:00 +1°C° 0.2 mm 2 mps 727 mmHg 93%
    03:00 +1°C° 0.2 mm 2 mps 727 mmHg 93%
    04:00 -1°C° 0.2 mm 2 mps 727 mmHg 93%
    05:00 -1°C° 0 mm 2 mps 727 mmHg 92%
    06:00 -2°C° 0 mm 2 mps 727 mmHg 92%
    07:00 -2°C° 0 mm 3 mps 727 mmHg 92%
    08:00 -2°C° 0 mm 3 mps 727 mmHg 91%
    09:00 -3°C° 0 mm 4 mps 727 mmHg 90%
    10:00 -2°C° 0 mm 4 mps 727 mmHg 90%
    11:00 -2°C° 0 mm 4 mps 726 mmHg 90%
    12:00 -2°C° 0 mm 4 mps 726 mmHg 91%
    13:00 -1°C° 0 mm 4 mps 725 mmHg 91%
    14:00 -2°C° 0 mm 4 mps 725 mmHg 90%
    15:00 -2°C° 0 mm 4 mps 725 mmHg 89%
    16:00 -3°C° 0 mm 4 mps 725 mmHg 88%
    17:00 -3°C° 0 mm 4 mps 725 mmHg 88%
    18:00 -3°C° 0 mm 4 mps 724 mmHg 87%
    19:00 -3°C° 0 mm 4 mps 724 mmHg 87%
    20:00 -4°C° 0 mm 5 mps 724 mmHg 86%
    21:00 -4°C° 0 mm 5 mps 724 mmHg 86%
    22:00 -4°C° 0 mm 5 mps 724 mmHg 85%
    23:00 -4°C° 0 mm 5 mps 724 mmHg 84%

    28 January, Monday

    Time Temperature Precipitation Wind Pressure Humidity
    00:00 -3°C° 0 mm 4 mps 724 mmHg 84%
    01:00 -3°C° 0 mm 4 mps 723 mmHg 83%
    02:00 -4°C° 0 mm 4 mps 723 mmHg 83%
    03:00 -4°C° 0 mm 3 mps 723 mmHg 83%
    04:00 -4°C° 0 mm 3 mps 722 mmHg 84%
    05:00 -4°C° 0 mm 3 mps 722 mmHg 84%
    06:00 -5°C° 0 mm 3 mps 723 mmHg 85%
    07:00 -5°C° 0 mm 3 mps 723 mmHg 86%
    08:00 -5°C° 0 mm 3 mps 723 mmHg 85%
    09:00 -4°C° 0 mm 3 mps 723 mmHg 84%
    10:00 -3°C° 0 mm 4 mps 723 mmHg 83%
    11:00 -1°C° 0 mm 3 mps 723 mmHg 85%
    12:00 -1°C° 0 mm 3 mps 723 mmHg 87%
    13:00 0°C° 0 mm 3 mps 723 mmHg 89%
    14:00 0°C° 0 mm 3 mps 723 mmHg 89%
    15:00 -1°C° 0 mm 3 mps 723 mmHg 89%
    16:00 -1°C° 0 mm 3 mps 723 mmHg 89%
    17:00 -2°C° 0 mm 2 mps 724 mmHg 89%
    18:00 -2°C° 0 mm 2 mps 724 mmHg 90%
    19:00 -3°C° 0 mm 2 mps 724 mmHg 90%
    20:00 -2°C° 0.1 mm 2 mps 724 mmHg 91%
    21:00 -2°C° 0.1 mm 2 mps 724 mmHg 91%
    22:00 -2°C° 0.1 mm 2 mps 724 mmHg 91%
    23:00 0°C° 0.4 mm 1 mps 724 mmHg 92%

    29 January, Tuesday

    Time Temperature Precipitation Wind Pressure Humidity
    00:00 0°C° 0.4 mm 1 mps 724 mmHg 93%
    01:00 -1°C° 0.4 mm 0 mps 724 mmHg 95%
    02:00 0°C° 0.8 mm 1 mps 724 mmHg 96%
    03:00 0°C° 0.8 mm 1 mps 724 mmHg 97%
    04:00 0°C° 0.8 mm 1 mps 723 mmHg 98%
    05:00 0°C° 0.7 mm 1 mps 723 mmHg 98%
    06:00 0°C° 0.7 mm 1 mps 723 mmHg 98%
    07:00 0°C° 0.7 mm 1 mps 723 mmHg 98%
    08:00 -2°C° 0.4 mm 2 mps 724 mmHg 97%
    09:00 -2°C° 0.4 mm 2 mps 724 mmHg 96%
    10:00 -1°C° 0.4 mm 2 mps 724 mmHg 96%
    11:00 -1°C° 0.3 mm 2 mps 724 mmHg 96%
    12:00 -1°C° 0.3 mm 2 mps 724 mmHg 96%
    13:00 -1°C° 0.3 mm 2 mps 724 mmHg 96%
    14:00 -1°C° 0.1 mm 2 mps 724 mmHg 96%
    15:00 0°C° 0.1 mm 1 mps 724 mmHg 96%
    16:00 0°C° 0.1 mm 1 mps 724 mmHg 95%
    17:00 0°C° 0.1 mm 1 mps 724 mmHg 95%
    18:00 -1°C° 0.1 mm 1 mps 725 mmHg 95%
    19:00 -2°C° 0.1 mm 0 mps 725 mmHg 95%
    20:00 -1°C° 0 mm 1 mps 725 mmHg 94%
    21:00 -1°C° 0 mm 1 mps 726 mmHg 93%
    22:00 -2°C° 0 mm 1 mps 726 mmHg 92%
    23:00 -2°C° 0 mm 1 mps 726 mmHg 92%
    Show more